User: anonymous   Login
Location: Ariel
(45.9570°N, 122.5700°W)
Time: 21:01:31
(UTC-08:00)
Language:

VELOX 1 - Orbit

View from above orbital plane
View from above orbital plane
View from above satellite
View from above satellite

Ground track
Ground track

The orbit data is extracted from the following two-line orbital elements,

1 40057U 14034E   19317.90166427  .00000271  00000-0  45402-4 0  9993
2 40057  98.2530  84.3490 0012067 116.3979 243.8472 14.77745063289659
Epoch (UTC): 13 November 2019 21:38:23
Eccentricity: 0.0012067
inclination: 98.2530°
perigee height: 628 km
apogee height: 645 km
right ascension of ascending node: 84.3490°
argument of perigee: 116.3979°
revolutions per day: 14.77745063
mean anomaly at epoch: 243.8472°
orbit number at epoch: 28965

The dashed part of the orbit path shows where the satellite is in the earth's shadow,  

DLR